Grants-Milan, NM

10:07 AM MDT on April 25, 2017 (GMT -0600)
Grants-Milan Municipal

Weather History for KGNT - May, 2014

Change the Weather History Date:

Friday, May 16, 2014

  Actual Average Record
Temperature  
Mean Temperature 53 °F -  
Max Temperature 78 °F 76 °F 86 °F (1988)
Min Temperature 28 °F 39 °F 24 °F (1998)
Degree Days  
Heating Degree Days 12    
Growing Degree Days 3 (Base 50)    
Moisture  
Dew Point 13 °F    
Average Humidity 20    
Maximum Humidity 42    
Minimum Humidity 10    
Precipitation  
Precipitation 0.00 in - - ()
Sea Level Pressure  
Sea Level Pressure 30.22 in    
Wind  
Wind Speed 7 mph (NW)    
Max Wind Speed 23 mph    
Max Gust Speed 30 mph    
Visibility 10 miles    
Events      
Averages and records for this station are not official NWS values.
T = Trace of Precipitation, MM = Missing Value Source: NWS Daily Summary

Daily Weather History Graph

Daily Weather History Graph

Search for Another Location

Airport or City:

Trip Planner

Search our weather history database for the weather conditions in past years. The results will help you decide how hot, cold, wet, or windy it might be!

Date:

Astronomy

May. 16, 2014 Rise Set
Actual Time 6:06 AM MDT 8:09 PM MDT
Civil Twilight 5:38 AM MDT 8:37 PM MDT
Nautical Twilight 5:04 AM MDT 9:12 PM MDT
Astronomical Twilight 4:27 AM MDT 9:49 PM MDT
Moon 10:19 PM MDT (5/16) 7:51 AM MDT (5/16)
Length of Visible Light 14h 59m
Length of Day
14h 02m
Waning Gibbous, 95% of the Moon is Illuminated
May 16
Waning Gibbous
May 21
Last Quarter
May 28
New
Jun 5
First Quarter
Jun 12
Full

Hourly Weather History & Observations

Time (MDT) Temp. Windchill Dew Point Humidity Pressure Visibility Wind Dir Wind Speed Gust Speed Precip Events Conditions
12:15 AM 45.7 °F 42.0 °F 10.4 °F 24% 30.32 in 10.0 mi NW 6.9 mph - N/A   Clear
12:35 AM 42.6 °F 38.4 °F 10.2 °F 27% 30.32 in 10.0 mi NW 6.9 mph - N/A   Clear
12:55 AM 42.3 °F 37.3 °F 10.4 °F 27% 30.32 in 10.0 mi NW 8.1 mph - N/A   Clear
1:15 AM 42.1 °F 37.7 °F 10.0 °F 27% 30.32 in 10.0 mi NW 6.9 mph - N/A   Clear
1:35 AM 42.8 °F 38.6 °F 10.8 °F 27% 30.32 in 10.0 mi NW 6.9 mph - N/A   Clear
1:55 AM 41.7 °F 38.8 °F 10.2 °F 28% 30.32 in 10.0 mi NW 4.6 mph - N/A   Clear
2:15 AM 38.7 °F 35.2 °F 9.7 °F 30% 30.30 in 10.0 mi NW 4.6 mph - N/A   Clear
2:35 AM 37.8 °F 34.2 °F 8.1 °F 29% 30.30 in 10.0 mi North 4.6 mph - N/A   Clear
2:55 AM 34.5 °F 30.4 °F 8.4 °F 34% 30.30 in 10.0 mi NNW 4.6 mph - N/A   Clear
3:15 AM 37.4 °F - 9.1 °F 31% 30.30 in 10.0 mi Calm Calm - N/A   Clear
3:35 AM 33.8 °F - 7.0 °F 33% 30.30 in 10.0 mi Calm Calm - N/A   Clear
3:55 AM 31.6 °F - 7.0 °F 35% 30.30 in 10.0 mi Calm Calm - N/A   Clear
4:15 AM 32.0 °F - 7.3 °F 36% 30.30 in 10.0 mi Calm Calm - N/A   Clear
4:35 AM 28.4 °F - 8.1 °F 42% 30.30 in 10.0 mi Calm Calm - N/A   Clear
4:55 AM 31.5 °F 26.8 °F 5.7 °F 34% 30.30 in 10.0 mi NNW 4.6 mph - N/A   Clear
5:15 AM 28.2 °F 23.1 °F 5.5 °F 38% 30.30 in 10.0 mi NW 4.6 mph - N/A   Clear
5:35 AM 32.7 °F 29.6 °F 7.0 °F 34% 30.30 in 10.0 mi WNW 3.5 mph - N/A   Clear
5:55 AM 31.8 °F - 8.2 °F 37% 30.30 in 10.0 mi Calm Calm - N/A   Clear
6:15 AM 31.3 °F 27.9 °F 5.2 °F 33% 30.30 in 10.0 mi North 3.5 mph - N/A   Clear
6:35 AM 30.4 °F 26.9 °F 6.1 °F 36% 30.30 in 10.0 mi NW 3.5 mph - N/A   Clear
6:55 AM 33.3 °F 27.9 °F 7.9 °F 35% 30.31 in 10.0 mi NW 5.8 mph - N/A   Clear
7:15 AM 36.5 °F 31.8 °F 8.4 °F 31% 30.31 in 10.0 mi NNW 5.8 mph - N/A   Clear
7:35 AM 39.7 °F 36.5 °F 9.9 °F 29% 30.32 in 10.0 mi NNW 4.6 mph - N/A   Clear
7:55 AM 42.8 °F 39.3 °F 10.8 °F 27% 30.31 in 10.0 mi NW 5.8 mph - N/A   Clear
8:15 AM 46.0 °F 42.5 °F 12.7 °F 26% 30.32 in 10.0 mi NW 6.9 mph - N/A   Clear
8:35 AM 48.7 °F - 13.5 °F 24% 30.31 in 10.0 mi NW 5.8 mph - N/A   Clear
8:55 AM 51.8 °F - 14.4 °F 23% 30.31 in 10.0 mi NNW 6.9 mph - N/A   Clear
9:15 AM 54.3 °F - 14.5 °F 21% 30.30 in 10.0 mi NNW 4.6 mph - N/A   Clear
9:35 AM 57.7 °F - 15.4 °F 19% 30.30 in 10.0 mi NNW 4.6 mph - N/A   Clear
9:55 AM 60.4 °F - 16.3 °F 18% 30.29 in 10.0 mi North 3.5 mph - N/A   Clear
10:15 AM 64.6 °F - 17.4 °F 16% 30.28 in 10.0 mi North 5.8 mph - N/A   Clear
10:35 AM 66.9 °F - 17.1 °F 15% 30.28 in 10.0 mi North 6.9 mph - N/A   Clear
10:55 AM 69.4 °F - 17.8 °F 14% 30.26 in 10.0 mi NNW 9.2 mph - N/A   Clear
11:15 AM 71.8 °F - 18.0 °F 13% 30.25 in 10.0 mi NNW 5.8 mph - N/A   Clear
11:35 AM 74.5 °F - 18.7 °F 12% 30.24 in 10.0 mi WNW 18.4 mph 23.0 mph N/A   Clear
11:55 AM 74.1 °F - 17.4 °F 12% 30.24 in 10.0 mi NW 19.6 mph 27.6 mph N/A   Clear
12:15 PM 74.8 °F - 18.7 °F 12% 30.23 in 10.0 mi NNW 16.1 mph 25.3 mph N/A   Clear
12:35 PM 75.6 °F - 18.5 °F 12% 30.22 in 10.0 mi NW 9.2 mph 23.0 mph N/A   Clear
12:55 PM 75.9 °F - 19.4 °F 12% 30.21 in 10.0 mi WNW 13.8 mph 21.9 mph N/A   Clear
1:15 PM 75.6 °F - 17.8 °F 11% 30.20 in 10.0 mi NW 15.0 mph 25.3 mph N/A   Clear
1:35 PM 76.6 °F - 18.0 °F 11% 30.19 in 10.0 mi NNW 15.0 mph 27.6 mph N/A   Clear
1:55 PM 76.8 °F - 17.2 °F 11% 30.18 in 10.0 mi NNW 18.4 mph 29.9 mph N/A   Clear
2:15 PM 77.9 °F - 18.1 °F 11% 30.18 in 10.0 mi NW 23.0 mph 26.5 mph N/A   Clear
2:35 PM 78.4 °F - 19.4 °F 11% 30.18 in 10.0 mi WNW 15.0 mph 18.4 mph N/A   Clear
2:55 PM 76.3 °F - 17.1 °F 11% 30.17 in 10.0 mi NNW 11.5 mph 17.3 mph N/A   Clear
3:15 PM 75.4 °F - 17.4 °F 11% 30.16 in 10.0 mi NNW 4.6 mph - N/A   Clear
3:35 PM 76.1 °F - 17.6 °F 11% 30.15 in 10.0 mi NW 8.1 mph - N/A   Clear
3:55 PM 76.8 °F - 17.2 °F 11% 30.14 in 10.0 mi NNW 16.1 mph 21.9 mph N/A   Clear
4:15 PM 77.7 °F - 16.5 °F 10% 30.14 in 10.0 mi WNW 17.3 mph 26.5 mph N/A   Clear
4:35 PM 78.3 °F - 17.6 °F 10% 30.13 in 10.0 mi WNW 18.4 mph 27.6 mph N/A   Clear
4:55 PM 75.6 °F - 16.3 °F 11% 30.12 in 10.0 mi NW 12.7 mph - N/A   Clear
5:15 PM 77.9 °F - 17.1 °F 10% 30.12 in 10.0 mi West 16.1 mph 21.9 mph N/A   Scattered Clouds
5:35 PM 76.3 °F - 16.2 °F 10% 30.12 in 10.0 mi West 15.0 mph 23.0 mph N/A   Clear
5:55 PM 75.6 °F - 15.4 °F 10% 30.11 in 10.0 mi West 16.1 mph 19.6 mph N/A   Clear
6:15 PM 76.8 °F - 15.3 °F 10% 30.11 in 10.0 mi WNW 16.1 mph 28.8 mph N/A   Clear
6:35 PM 74.8 °F - 14.9 °F 10% 30.11 in 10.0 mi WNW 13.8 mph - N/A   Clear
6:55 PM 75.4 °F - 14.4 °F 10% 30.11 in 10.0 mi WNW 16.1 mph 20.7 mph N/A   Clear
7:15 PM 74.1 °F - 14.5 °F 10% 30.11 in 10.0 mi WNW 10.4 mph 20.7 mph N/A   Clear
7:35 PM 72.9 °F - 14.0 °F 11% 30.11 in 10.0 mi WNW 13.8 mph 17.3 mph N/A   Clear
7:55 PM 72.1 °F - 13.3 °F 10% 30.12 in 10.0 mi WNW 12.7 mph 20.7 mph N/A   Clear
8:15 PM 71.4 °F - 13.1 °F 11% 30.12 in 10.0 mi WNW 12.7 mph 19.6 mph N/A   Clear
8:35 PM 67.3 °F - 13.1 °F 12% 30.12 in 10.0 mi WNW 8.1 mph - N/A   Clear
8:55 PM 65.1 °F - 12.6 °F 13% 30.12 in 10.0 mi NW 9.2 mph - N/A   Clear
9:15 PM 64.4 °F - 12.2 °F 13% 30.14 in 10.0 mi West 8.1 mph - N/A   Clear
9:35 PM 63.7 °F - 12.2 °F 13% 30.14 in 10.0 mi West 8.1 mph - N/A   Clear
9:55 PM 63.0 °F - 12.2 °F 14% 30.15 in 10.0 mi West 8.1 mph - N/A   Clear
10:15 PM 60.8 °F - 12.4 °F 15% 30.15 in 10.0 mi West 6.9 mph - N/A   Clear
10:35 PM 60.3 °F - 11.7 °F 15% 30.16 in 10.0 mi North 4.6 mph - N/A   Clear
10:55 PM 57.9 °F - 12.0 °F 16% 30.15 in 10.0 mi North 3.5 mph - N/A   Clear
11:15 PM 57.7 °F - 13.1 °F 17% 30.15 in 10.0 mi Calm Calm - N/A   Clear
11:35 PM 55.0 °F - 12.4 °F 18% 30.15 in 10.0 mi Calm Calm - N/A   Clear
11:55 PM 53.4 °F - 12.9 °F 20% 30.15 in 10.0 mi Calm Calm - N/A   Clear